Temperature
17 17 18 18 15 13 15 16 17 18 18 19 20 19 17 17 17 19 19 19 18 17 16 14 14 14 13 13 13 13 13 12 12 12 12 12 12 12 12 12 11 11 11 11 11 12 11 11 11
17 17 18 17 14 14 15 16 17 18 19 19 19 19 18 19 19 20 20 19 18 17 16 15 14 14 13 13 13 13 12 12 12 12 12 12 11 11 11 11 11 12 12 11 11 12 11 11 11
17 17 18 13 13 14 17 17 16 18 19 19 19 19 20 20 20 20 20 19 17 17 16 15 14 14 13 13 13 12 12 12 12 12 12 11 11 11 11 11 11 12 12 12 12 12 11 11 11
17 18 17 13 15 15 16 17 17 18 19 19 19 18 19 20 20 20 20 19 18 17 16 15 14 14 13 13 13 12 12 12 12 12 11 11 11 11 11 11 12 12 12 12 12 11 11 11 11
17 17 14 14 15 15 15 17 18 18 18 19 19 18 19 20 20 20 19 19 18 17 16 15 14 14 13 13 13 12 12 12 12 12 11 11 11 11 12 11 11 11 11 11 11 11 11 11 11
17 14 13 14 15 16 16 18 18 18 18 19 19 18 19 20 20 19 19 19 18 17 16 15 14 14 13 13 13 12 12 12 12 12 11 11 11 11 12 11 11 11 11 11 11 11 11 11 10
16 12 13 15 15 16 18 19 18 17 18 19 20 18 19 19 19 19 19 18 17 17 16 15 14 14 13 13 13 12 12 12 12 12 11 11 11 11 11 11 11 11 11 11 11 10 10 10 10
17 13 14 14 15 17 18 19 20 19 19 20 20 18 19 20 19 19 18 17 17 16 16 15 15 14 13 13 13 12 12 12 12 12 12 12 11 11 11 11 11 11 11 10 10 10 10 10 10
16 13 13 14 15 17 18 18 19 20 20 19 20 20 20 20 19 18 17 16 16 16 16 15 15 14 14 13 13 12 12 12 12 11 11 11 11 11 11 11 11 10 10 10 10 10 10 10 9
15 13 14 15 16 17 18 18 19 19 18 18 19 20 20 20 20 19 18 18 17 17 16 15 15 14 14 13 13 12 12 12 11 11 11 11 11 11 11 11 10 10 10 10 10 10 9 9 9
13 13 14 16 17 18 18 18 19 18 17 19 20 20 20 20 19 19 19 19 19 18 17 16 15 14 14 14 13 12 12 12 11 11 11 11 11 11 10 10 10 10 10 10 10 9 9 9 9
13 13 15 17 18 18 18 18 18 18 20 21 21 21 21 20 20 20 20 19 19 18 17 16 15 14 14 14 13 13 12 12 12 12 11 11 11 11 10 10 10 10 9 9 9 9 9 9 9
13 14 16 17 17 18 18 17 18 18 20 20 20 20 20 20 20 20 20 19 19 18 17 17 16 15 14 14 13 13 12 12 12 12 11 11 11 10 10 10 10 9 9 9 9 9 9 9 9
14 14 16 16 17 17 16 16 16 18 19 19 20 20 20 20 20 20 19 19 19 18 18 17 16 15 14 14 13 13 13 12 12 12 11 11 11 10 10 10 10 9 9 9 9 9 9 9 9
15 14 14 14 15 16 16 15 15 19 19 19 19 19 19 19 19 20 20 20 19 19 18 17 16 15 14 14 14 13 13 12 12 12 11 11 11 10 10 10 10 9 9 9 9 9 9 9 9
14 13 13 14 14 15 15 14 15 18 18 18 18 19 19 19 19 20 20 19 19 19 18 17 16 16 15 14 14 13 13 13 12 12 11 11 11 10 10 10 10 9 9 9 9 9 9 9 9
12 12 12 14 14 14 14 14 15 18 17 17 18 19 19 19 19 19 19 19 19 19 18 18 17 16 16 15 14 13 13 13 12 12 12 11 11 10 10 10 10 9 9 9 9 9 9 9 9
11 11 12 13 14 13 13 13 14 17 16 16 17 18 19 19 20 20 20 19 19 19 18 18 17 16 15 14 13 13 12 12 12 12 12 11 11 11 10 10 10 9 9 9 9 9 9 9 9
12 12 12 13 14 13 13 13 14 15 14 14 16 17 18 19 20 20 20 19 19 19 18 18 17 16 15 14 13 13 13 13 12 12 12 11 11 11 10 10 10 9 9 9 9 9 9 9 9
12 12 12 13 14 14 13 13 13 13 13 15 16 17 19 19 20 20 20 20 19 19 18 18 18 17 16 15 15 14 14 13 13 12 12 11 11 11 10 10 10 10 9 9 9 9 9 9 9
12 12 12 13 13 13 13 13 13 13 14 15 17 18 19 19 20 20 20 20 19 19 19 19 18 18 17 16 15 13 12 12 11 12 12 12 11 11 11 10 10 10 10 9 9 9 9 9 9
12 12 13 13 12 11 13 11 12 13 13 13 14 17 18 19 20 20 20 20 20 20 19 19 19 18 17 16 15 14 13 13 13 13 13 12 11 11 11 10 10 10 10 9 9 9 9 9 9
12 12 13 12 12 11 11 11 11 12 13 14 14 16 18 19 20 20 20 20 20 20 19 19 19 18 17 16 16 15 14 14 13 13 12 12 11 11 11 10 10 10 10 10 9 9 9 9 9
12 12 11 10 10 10 11 10 11 11 13 14 14 16 18 19 20 20 20 20 20 19 19 19 18 18 17 16 16 15 15 14 13 13 12 12 11 11 11 10 10 10 10 10 9 9 9 9 9
12 11 10 10 10 10 10 10 11 12 13 14 15 17 18 19 19 19 20 19 19 19 19 19 18 18 17 16 16 15 15 14 14 13 13 12 12 11 11 10 10 10 10 10 9 9 9 9 9
11 11 10 11 10 10 9 10 11 12 13 14 15 16 17 18 19 19 19 19 19 19 19 18 18 18 17 16 16 15 14 14 13 13 13 12 12 12 11 11 10 10 10 10 9 9 9 9 8
11 11 11 10 10 10 9 9 10 11 12 12 13 15 16 18 19 19 19 19 19 19 18 18 18 18 17 16 15 15 14 14 13 13 13 12 12 12 11 11 10 10 10 9 9 9 9 9 8
11 11 10 10 10 10 10 10 11 13 13 13 13 13 16 18 18 19 19 19 19 18 18 18 17 17 17 16 15 15 14 14 13 13 12 12 12 11 11 10 10 10 10 9 9 9 8 8 8
10 10 10 10 9 10 10 11 11 13 14 14 13 15 17 18 19 19 18 18 18 18 18 17 17 16 16 15 15 14 14 13 13 13 12 12 12 11 11 10 10 10 9 9 9 9 8 8 8
10 10 10 10 9 9 9 11 13 12 13 13 13 15 17 18 18 18 18 18 18 17 17 17 17 16 16 15 14 14 14 13 13 12 12 12 11 11 10 10 10 9 9 9 9 8 8 8 8
Wind_Speed
3 2 3 4 5 4 3 5 4 3 4 2 4 7 10 8 6 4 2 11 11 12 18 21 21 20 19 18 18 16 16 15 14 14 13 13 13 13 13 13 13 13 13 14 14 14 14 15 15
1 2 4 5 5 1 6 5 6 6 5 5 5 5 6 4 2 6 6 10 12 15 18 19 22 21 19 19 18 17 16 15 14 13 13 12 12 12 12 13 13 12 13 13 13 13 13 14 14
2 3 4 5 4 6 6 5 7 3 5 4 4 2 4 5 5 8 7 12 12 14 16 20 23 21 20 19 18 17 16 15 14 13 13 12 11 11 12 12 12 12 12 12 12 12 13 13 13
3 4 5 3 5 6 6 5 4 4 3 3 5 4 0 1 6 7 10 13 14 12 16 20 23 22 21 20 19 18 16 15 14 13 13 12 12 11 11 11 11 11 11 11 11 11 11 12 12
4 4 2 1 6 5 6 4 5 5 5 4 6 7 3 3 4 9 14 14 16 12 15 19 23 22 21 20 19 18 17 15 14 14 13 12 12 11 11 11 10 10 10 10 10 10 10 10 10
4 4 3 4 6 5 5 4 5 4 4 5 7 8 4 2 7 11 13 13 12 12 14 17 23 22 21 20 19 18 17 16 15 14 13 12 12 11 11 10 10 10 9 9 9 9 9 9 9
5 4 5 5 4 5 4 4 6 6 6 7 9 8 2 3 6 10 11 10 10 10 11 13 18 20 21 20 19 19 17 16 15 14 13 13 12 11 11 10 9 9 9 8 8 8 7 7 7
5 5 4 4 4 5 3 3 4 7 5 4 7 9 7 7 10 11 10 9 9 9 8 9 13 16 17 19 20 19 18 17 16 14 14 13 12 11 10 9 9 8 7 7 6 6 6 6 6
5 3 5 7 7 5 2 3 1 3 6 3 2 3 2 14 16 14 11 9 11 11 8 8 10 13 15 16 18 19 18 17 16 14 14 13 11 10 9 9 8 7 6 5 5 4 5 5 6
5 6 9 6 6 4 3 4 4 4 4 3 2 3 8 16 18 19 17 18 18 17 13 9 9 11 14 15 15 16 15 15 15 14 14 13 11 10 9 8 7 6 5 3 3 3 5 5 5
7 8 6 6 5 4 3 3 3 7 5 8 9 9 13 14 16 17 18 19 19 17 15 13 11 12 13 11 12 12 13 13 14 15 15 13 11 9 8 6 4 3 2 2 2 4 4 4 4
6 7 6 5 4 3 4 3 3 7 8 6 8 12 14 18 19 19 19 17 15 15 17 14 13 11 12 12 11 11 11 11 12 14 16 13 9 7 7 5 4 3 2 1 1 2 3 3 4
7 5 6 7 6 4 4 5 5 7 6 1 6 12 16 18 18 17 15 13 13 16 17 16 15 14 12 10 10 10 11 12 13 14 15 15 10 7 7 6 5 5 4 3 1 0 1 2 3
8 8 6 5 6 4 5 6 4 9 5 4 8 12 15 17 17 13 11 13 16 18 18 17 17 15 13 11 9 9 12 13 14 14 15 16 13 10 8 6 6 6 6 5 3 2 1 1 2
4 4 6 7 7 5 4 9 10 10 5 7 9 11 12 14 13 15 17 18 18 18 17 18 18 16 15 13 12 11 13 14 13 14 16 16 15 13 10 6 5 7 7 5 3 2 1 0 1
5 5 6 7 8 7 8 13 10 7 8 10 10 10 11 13 13 15 15 14 14 14 16 18 16 17 17 15 12 11 13 14 13 15 15 17 16 15 11 7 6 8 7 5 3 2 1 0 1
5 7 9 7 7 7 10 10 9 6 9 10 10 10 11 12 12 13 14 14 14 16 17 18 18 19 19 16 12 11 12 12 13 14 15 16 17 16 13 9 8 9 7 4 3 2 2 1 1
9 8 7 9 6 8 9 11 10 6 8 10 10 10 10 12 16 14 14 14 14 14 15 17 18 18 16 13 10 8 9 9 11 13 15 17 16 17 14 9 9 9 5 4 3 3 2 1 1
8 8 8 7 5 8 11 13 14 10 8 10 11 11 12 14 13 11 11 12 12 13 15 17 18 17 15 14 13 12 12 11 10 11 15 17 17 17 14 9 8 8 6 6 6 4 3 1 1
8 9 7 4 3 6 7 12 12 11 10 11 12 13 14 13 10 9 9 10 14 16 17 18 18 18 18 16 15 11 9 8 8 7 12 16 17 17 15 11 8 8 6 6 6 4 3 2 2
14 12 10 6 1 1 3 9 9 9 8 9 10 12 12 14 14 11 10 12 13 15 18 17 19 19 19 16 10 8 6 5 6 9 10 12 16 17 15 14 10 9 8 8 8 7 6 4 2
17 11 9 6 3 4 2 6 8 8 9 10 13 12 13 13 12 11 10 10 13 16 15 16 17 17 17 16 15 16 13 12 12 10 10 10 14 15 16 14 13 10 8 8 8 7 5 5 4
8 9 9 7 5 5 4 6 9 6 10 12 13 13 13 12 12 11 11 12 12 12 13 14 14 15 16 17 18 18 14 11 8 7 10 10 10 12 14 14 12 10 8 9 8 7 7 5 5
7 6 3 2 3 11 12 9 9 8 11 10 10 11 11 10 9 9 8 7 8 8 10 11 13 15 16 18 18 18 17 13 11 10 11 10 8 9 11 12 12 11 9 9 9 8 9 7 6
11 8 5 6 8 11 8 10 11 10 11 12 12 11 10 8 8 7 7 8 8 10 11 11 14 14 15 17 18 18 17 16 16 14 13 11 9 8 12 11 11 10 10 10 9 8 8 8 7
16 14 10 9 8 6 6 11 10 10 9 9 10 9 8 8 8 8 8 8 9 10 11 12 14 13 15 16 17 15 14 13 11 12 11 13 11 11 11 12 12 11 11 10 9 7 8 7 8
13 14 9 5 3 4 7 7 9 7 8 9 10 9 10 10 9 9 7 7 8 9 10 12 13 13 14 15 14 13 14 13 12 12 11 10 9 9 11 12 11 11 10 10 9 7 8 8 8
10 11 7 8 8 7 6 7 7 7 11 11 11 11 12 9 8 8 7 7 7 7 7 8 10 12 11 13 13 12 13 13 12 11 12 11 10 10 11 12 11 10 10 10 9 7 7 8 7
9 11 8 8 6 8 6 8 9 12 13 13 14 12 11 10 10 8 6 5 5 5 6 7 8 9 10 11 11 11 11 11 11 11 12 11 10 11 12 12 12 11 10 10 9 8 8 9 7
9 12 11 10 8 7 5 8 7 10 9 9 10 10 8 9 7 6 5 5 5 6 7 8 8 9 9 10 10 11 10 10 11 11 11 11 11 11 11 11 11 10 10 10 10 10 9 9 9
Wind_Direction
339 41 78 59 58 56 236 241 224 218 212 197 148 151 158 164 170 188 134 147 141 152 167 166 161 157 152 147 143 139 135 130 125 119 115 111 106 102 100 95 91 88 85 83 82 82 82 80 78
67 94 60 64 101 182 255 237 219 216 182 124 96 114 138 173 159 131 141 164 149 155 162 164 163 158 154 149 145 142 139 134 130 126 122 118 113 107 102 98 95 93 90 87 86 86 85 83 80
126 62 88 88 147 191 225 221 212 216 163 150 121 123 158 162 163 172 176 157 146 153 160 165 163 161 158 154 151 147 143 139 136 133 129 125 121 114 109 104 100 98 95 92 90 89 87 85 82
93 54 61 99 219 224 227 229 188 144 167 171 138 117 109 37 173 174 148 150 147 152 160 166 165 164 161 157 154 151 148 145 143 140 136 131 126 121 115 110 105 102 99 96 93 91 88 85 81
63 85 88 252 246 249 244 237 187 173 180 168 145 140 142 16 105 132 145 152 153 155 160 169 167 165 163 160 158 156 154 152 149 146 142 136 131 126 121 117 113 108 104 99 95 92 89 85 81
65 79 130 228 252 268 258 207 167 177 174 162 147 144 163 97 134 148 150 152 154 156 160 170 168 167 166 164 162 161 160 157 155 151 147 142 138 133 130 126 121 115 108 102 97 93 90 86 82
123 127 185 212 252 269 246 177 173 174 180 192 163 144 203 164 159 146 141 140 146 153 159 170 170 170 170 169 167 165 164 161 159 156 152 148 145 141 137 133 128 121 114 107 100 95 89 84 78
141 136 186 211 219 248 250 179 180 169 190 160 147 154 200 181 142 130 127 135 148 157 164 170 168 168 171 172 170 169 168 165 164 161 155 151 150 148 143 140 136 130 122 113 105 94 83 73 64
113 121 206 210 201 235 237 189 183 151 131 142 187 186 171 136 137 137 141 153 167 175 178 173 167 167 168 169 172 170 170 169 166 162 157 151 147 146 144 146 147 142 133 122 109 90 71 58 48
139 190 219 213 200 212 216 199 179 129 140 163 145 73 118 142 152 160 168 175 182 187 187 181 173 168 167 171 171 169 168 169 165 161 157 152 150 150 149 156 157 151 141 125 95 63 54 45 30
177 202 220 233 222 215 210 221 182 151 195 204 193 172 153 160 167 175 181 185 189 187 187 186 181 173 170 169 167 166 165 164 163 162 160 156 154 153 151 156 162 154 133 91 53 41 36 28 17
192 224 215 227 212 209 208 201 196 192 217 217 192 162 166 172 182 187 189 191 187 186 192 188 183 178 175 171 170 168 166 167 167 169 167 161 157 157 160 166 175 173 165 137 62 31 14 13 10
210 230 222 233 241 237 230 228 220 234 238 179 138 156 178 186 193 197 194 187 185 191 193 191 187 185 180 174 174 175 175 175 175 174 175 173 168 169 173 181 187 193 192 185 183 256 352 357 357
211 217 236 239 232 229 226 252 221 245 220 175 171 184 194 197 199 195 190 189 193 197 196 192 192 190 184 184 183 181 181 179 178 180 182 181 179 177 178 182 191 202 203 199 198 206 221 339 349
181 201 256 238 217 221 198 263 234 233 186 200 206 207 207 212 207 203 200 199 198 198 195 194 194 191 190 190 187 184 185 182 183 186 187 186 186 183 182 183 195 207 205 196 184 175 138 18 1
158 187 236 242 198 196 177 250 254 231 196 221 224 222 220 221 217 216 211 207 200 194 194 195 194 194 195 194 190 187 187 186 189 188 189 190 190 188 184 186 199 201 190 181 167 158 148 1 334
177 200 217 243 202 178 191 240 252 221 198 227 232 226 225 229 230 224 216 210 202 196 194 194 195 195 196 195 191 188 187 190 191 190 191 193 193 191 188 193 199 190 178 175 170 156 158 195 270
195 196 203 215 207 178 208 240 257 244 209 231 239 238 231 230 232 225 215 210 203 197 194 195 196 197 194 192 187 186 189 194 193 193 196 193 194 193 191 193 192 181 171 175 172 164 152 156 186
179 183 205 219 203 185 221 242 252 252 233 239 242 240 237 237 239 229 214 206 198 195 194 195 196 195 189 191 192 194 199 198 198 198 196 194 195 193 192 192 185 180 184 186 175 161 157 160 125
198 202 212 241 207 201 239 253 253 244 233 229 232 235 236 238 244 232 215 200 199 199 198 196 197 194 192 195 195 196 191 194 196 190 194 196 196 194 195 191 188 185 184 179 177 167 156 153 134
212 208 204 208 315 275 282 282 259 254 234 238 234 234 234 231 235 232 217 208 203 202 200 198 198 195 195 190 181 169 157 155 179 193 197 198 197 196 195 193 188 185 184 189 188 180 170 175 172
222 206 191 196 210 261 217 273 268 250 257 246 242 238 237 236 234 230 219 211 206 206 200 198 196 195 193 184 183 182 189 196 198 193 195 192 195 195 195 192 190 187 187 189 189 184 178 166 177
204 179 187 198 213 263 236 248 269 250 251 249 241 238 237 234 229 226 219 212 207 200 194 195 191 192 189 187 189 190 196 198 183 174 183 190 192 194 194 192 190 189 191 191 182 179 181 180 177
159 126 124 149 196 246 226 219 264 223 222 237 237 235 235 233 226 225 217 200 195 188 186 185 186 190 188 189 190 194 195 185 175 180 188 191 191 193 193 191 191 191 190 191 190 187 184 186 182
172 155 175 197 211 237 196 212 246 227 219 221 232 240 237 228 221 220 210 197 191 186 186 184 186 190 188 189 193 196 195 189 189 188 191 189 189 195 196 192 193 193 193 190 184 185 188 187 187
189 182 187 193 205 232 190 225 246 236 235 236 239 242 237 227 221 221 215 202 197 191 186 184 188 190 187 190 195 196 193 193 196 191 189 192 197 198 190 190 194 193 189 186 183 187 191 188 193
180 199 190 169 166 210 231 257 289 253 248 242 239 235 232 226 221 219 213 201 194 190 189 188 188 188 188 191 191 192 192 193 194 191 189 192 192 187 184 188 192 191 188 186 183 192 192 188 196
179 164 166 187 185 221 247 238 232 225 223 226 227 227 229 222 218 213 208 202 195 191 187 185 187 189 187 187 189 192 193 194 192 187 190 191 188 181 181 187 190 189 188 185 185 190 189 188 197
170 182 181 180 190 188 225 249 217 208 208 213 221 223 218 212 211 209 206 198 183 172 172 178 181 180 182 185 187 187 190 190 187 190 193 191 186 183 184 187 188 188 189 185 187 192 185 192 198
181 185 181 190 206 193 201 257 244 217 225 221 229 227 218 212 206 198 192 178 174 177 177 179 179 181 183 181 182 187 186 184 188 193 191 187 185 185 185 183 185 188 188 187 189 193 191 194 200
Height
1500 1501 1503 1505 1509 1520 1519 1510 1504 1501 1500 1498 1499 1501 1503 1506 1511 1513 1509 1509 1511 1514 1517 1521 1525 1528 1530 1532 1534 1536 1537 1538 1539 1540 1541 1542 1542 1543 1543 1544 1544 1544 1545 1545 1545 1545 1546 1546 1546
1500 1502 1504 1505 1515 1525 1518 1506 1502 1498 1497 1497 1498 1500 1501 1502 1503 1505 1506 1509 1511 1514 1517 1521 1524 1527 1530 1532 1534 1536 1537 1539 1540 1541 1542 1542 1543 1543 1544 1544 1545 1545 1545 1546 1546 1546 1547 1547 1547
1500 1502 1504 1507 1516 1519 1509 1500 1498 1496 1496 1497 1498 1500 1500 1501 1503 1505 1507 1509 1511 1515 1518 1521 1524 1527 1530 1532 1534 1536 1538 1539 1540 1541 1542 1543 1543 1544 1544 1545 1545 1546 1546 1546 1547 1547 1547 1548 1548
1501 1503 1504 1510 1511 1506 1500 1495 1494 1495 1496 1497 1497 1499 1500 1502 1504 1505 1506 1509 1511 1515 1518 1521 1524 1527 1530 1532 1534 1536 1538 1539 1540 1541 1542 1543 1544 1544 1545 1545 1546 1546 1547 1547 1548 1548 1549 1549 1549
1500 1501 1507 1511 1507 1500 1495 1493 1493 1494 1495 1495 1496 1498 1500 1502 1503 1505 1507 1509 1512 1515 1518 1521 1524 1527 1529 1532 1534 1536 1538 1539 1540 1541 1542 1543 1544 1545 1545 1546 1546 1547 1548 1548 1549 1549 1550 1550 1550
1500 1501 1512 1512 1504 1496 1492 1491 1492 1493 1494 1495 1495 1497 1499 1501 1503 1505 1508 1510 1513 1515 1518 1521 1524 1527 1529 1532 1534 1536 1537 1539 1540 1541 1542 1543 1544 1545 1546 1546 1547 1548 1548 1549 1550 1550 1550 1551 1551
1498 1503 1507 1505 1502 1496 1490 1489 1490 1491 1492 1493 1493 1496 1498 1500 1503 1505 1508 1510 1513 1516 1518 1521 1524 1526 1529 1531 1533 1535 1537 1539 1540 1541 1543 1544 1545 1545 1546 1547 1548 1548 1549 1550 1550 1551 1551 1552 1552
1495 1500 1502 1503 1500 1494 1488 1487 1487 1489 1490 1492 1493 1494 1496 1498 1501 1504 1507 1510 1513 1516 1518 1520 1523 1526 1528 1531 1533 1535 1537 1538 1540 1541 1542 1544 1545 1546 1547 1547 1548 1549 1550 1551 1551 1552 1552 1552 1553
1493 1501 1503 1498 1496 1491 1486 1486 1486 1487 1488 1490 1491 1493 1494 1496 1499 1503 1506 1509 1511 1514 1517 1519 1522 1524 1527 1530 1532 1534 1536 1538 1539 1541 1542 1543 1545 1546 1547 1548 1549 1549 1550 1551 1552 1552 1553 1553 1553
1490 1498 1493 1488 1487 1486 1485 1485 1485 1486 1488 1488 1489 1491 1492 1494 1497 1499 1502 1504 1507 1510 1514 1517 1520 1523 1526 1528 1531 1533 1535 1537 1538 1540 1542 1543 1544 1546 1547 1548 1549 1550 1550 1551 1552 1552 1553 1553 1553
1486 1488 1485 1484 1483 1483 1483 1483 1484 1484 1487 1485 1486 1487 1489 1492 1494 1497 1499 1501 1504 1508 1511 1514 1518 1521 1524 1526 1529 1531 1533 1535 1537 1539 1541 1542 1544 1545 1546 1547 1549 1549 1550 1551 1552 1552 1553 1553 1553
1483 1481 1481 1480 1481 1482 1482 1482 1482 1482 1482 1483 1484 1485 1486 1489 1491 1493 1496 1499 1502 1505 1508 1512 1515 1518 1521 1524 1527 1529 1531 1533 1536 1538 1539 1541 1543 1544 1546 1547 1548 1549 1550 1551 1552 1552 1553 1553 1553
1479 1478 1478 1478 1479 1480 1480 1480 1480 1479 1480 1480 1481 1483 1484 1486 1488 1491 1494 1497 1500 1502 1505 1508 1512 1515 1519 1522 1525 1527 1529 1532 1534 1536 1538 1540 1542 1543 1545 1546 1548 1549 1550 1551 1551 1552 1552 1552 1552
1473 1475 1475 1475 1476 1477 1478 1477 1478 1474 1477 1478 1478 1480 1481 1483 1485 1488 1491 1493 1496 1499 1502 1505 1508 1512 1515 1519 1521 1524 1527 1529 1532 1534 1536 1538 1540 1542 1544 1545 1547 1548 1549 1550 1551 1551 1552 1552 1551
1471 1474 1474 1472 1473 1474 1476 1476 1472 1471 1474 1474 1475 1476 1478 1480 1482 1484 1486 1489 1492 1495 1498 1501 1505 1509 1512 1515 1518 1521 1524 1527 1529 1532 1534 1536 1539 1541 1542 1544 1546 1547 1548 1549 1550 1550 1551 1551 1550
1469 1474 1476 1469 1469 1470 1477 1475 1466 1467 1469 1470 1471 1472 1474 1475 1477 1480 1482 1485 1488 1491 1494 1498 1501 1504 1508 1511 1514 1518 1521 1523 1526 1529 1531 1534 1536 1539 1541 1543 1544 1546 1547 1548 1548 1549 1549 1549 1549
1471 1475 1473 1469 1465 1467 1471 1470 1462 1463 1464 1465 1466 1467 1468 1470 1472 1475 1477 1480 1483 1486 1490 1493 1496 1499 1503 1507 1510 1514 1517 1520 1523 1526 1528 1531 1534 1536 1538 1541 1542 1544 1545 1546 1547 1547 1548 1548 1548
1470 1471 1469 1468 1462 1465 1468 1466 1460 1459 1460 1460 1461 1462 1463 1464 1466 1469 1472 1475 1478 1481 1484 1488 1491 1494 1498 1502 1506 1509 1513 1516 1519 1522 1525 1528 1531 1533 1536 1538 1540 1542 1543 1544 1545 1546 1546 1546 1546
1459 1463 1464 1462 1459 1462 1464 1462 1457 1455 1456 1456 1456 1456 1457 1458 1461 1464 1467 1469 1472 1475 1478 1481 1485 1488 1492 1496 1499 1503 1506 1510 1513 1517 1520 1524 1527 1530 1533 1535 1537 1539 1540 1541 1542 1543 1544 1544 1544
1456 1460 1462 1460 1457 1459 1461 1459 1452 1450 1449 1448 1448 1449 1450 1452 1454 1457 1460 1462 1465 1468 1471 1474 1477 1482 1485 1489 1492 1496 1501 1505 1509 1512 1516 1520 1523 1526 1529 1531 1533 1535 1537 1538 1540 1541 1541 1542 1542
1452 1456 1459 1460 1458 1457 1459 1457 1450 1443 1442 1441 1441 1441 1443 1444 1446 1449 1452 1455 1457 1460 1463 1467 1471 1475 1479 1483 1488 1492 1497 1500 1504 1507 1510 1514 1518 1522 1524 1527 1530 1532 1534 1535 1536 1538 1539 1539 1540
1447 1448 1453 1457 1462 1465 1462 1467 1450 1442 1439 1436 1434 1434 1435 1437 1439 1442 1444 1447 1450 1453 1457 1461 1465 1468 1472 1477 1481 1484 1488 1491 1495 1500 1505 1510 1513 1517 1520 1523 1526 1528 1530 1532 1533 1534 1536 1536 1537
1441 1443 1450 1454 1460 1466 1463 1466 1450 1440 1437 1430 1427 1426 1427 1430 1432 1434 1437 1440 1443 1447 1451 1454 1458 1462 1466 1470 1474 1478 1482 1486 1491 1496 1500 1505 1508 1512 1515 1518 1521 1523 1525 1527 1529 1530 1532 1533 1533
1437 1445 1452 1458 1463 1466 1457 1464 1448 1437 1428 1423 1421 1420 1421 1423 1426 1428 1431 1434 1437 1441 1445 1448 1452 1456 1460 1464 1468 1472 1476 1481 1485 1490 1494 1499 1503 1506 1510 1513 1516 1519 1521 1523 1525 1526 1527 1528 1529
1433 1445 1456 1459 1461 1455 1450 1452 1435 1422 1417 1415 1415 1415 1416 1418 1421 1423 1426 1429 1432 1435 1439 1443 1447 1450 1454 1458 1462 1467 1471 1476 1480 1484 1489 1493 1497 1500 1504 1508 1511 1513 1516 1518 1520 1522 1523 1524 1525
1425 1433 1443 1449 1451 1451 1449 1443 1425 1412 1409 1408 1409 1410 1411 1414 1416 1419 1421 1424 1427 1430 1434 1438 1441 1445 1449 1453 1457 1462 1466 1471 1475 1479 1484 1488 1491 1495 1499 1502 1505 1508 1511 1513 1515 1517 1518 1519 1520
1421 1426 1428 1438 1443 1446 1443 1434 1420 1408 1406 1405 1405 1405 1406 1408 1412 1414 1417 1420 1423 1426 1430 1433 1437 1440 1444 1448 1452 1457 1461 1465 1470 1474 1479 1483 1486 1490 1494 1497 1500 1503 1506 1508 1510 1512 1513 1514 1515
1409 1417 1427 1435 1440 1441 1435 1431 1419 1405 1402 1400 1401 1400 1400 1404 1407 1410 1414 1417 1420 1423 1426 1429 1432 1436 1439 1443 1447 1451 1456 1460 1465 1469 1473 1477 1481 1485 1488 1491 1494 1497 1500 1502 1505 1506 1508 1509 1510
1408 1413 1416 1424 1429 1432 1432 1420 1399 1394 1392 1393 1393 1393 1396 1400 1403 1407 1410 1414 1417 1420 1422 1425 1429 1432 1435 1439 1443 1447 1451 1455 1459 1464 1468 1472 1476 1479 1482 1485 1488 1491 1494 1497 1499 1501 1502 1503 1505
1395 1400 1409 1416 1422 1422 1423 1411 1386 1387 1386 1388 1389 1390 1393 1396 1400 1404 1407 1410 1413 1416 1419 1422 1425 1428 1432 1435 1439 1442 1446 1450 1454 1458 1463 1467 1470 1474 1477 1480 1483 1485 1488 1491 1493 1495 1496 1498 1499